Precipitable_Water
1.29 1.26 1.25 1.22 1.20 1.17 1.15 1.12 1.08 1.07 1.03 1.00 0.96 0.91 0.87 0.85 0.81 0.72 0.61 0.61 0.65 0.64 0.66 0.61 0.57 0.53 0.48 0.43 0.47 0.45 0.29 0.26 0.29 0.29 0.30 0.38 0.36 0.43 0.47 0.42 0.44 0.44 0.41 0.43 0.44
1.31 1.28 1.23 1.20 1.15 1.12 1.10 1.09 1.06 1.04 0.99 0.94 0.91 0.88 0.86 0.86 0.77 0.68 0.74 0.70 0.74 0.69 0.59 0.52 0.46 0.48 0.44 0.42 0.42 0.38 0.29 0.28 0.34 0.34 0.32 0.36 0.37 0.38 0.37 0.36 0.38 0.41 0.44 0.44 0.46
1.31 1.26 1.21 1.20 1.15 1.12 1.08 1.05 1.03 1.01 0.94 0.87 0.83 0.85 0.81 0.84 0.67 0.60 0.75 0.75 0.71 0.72 0.60 0.56 0.50 0.45 0.40 0.43 0.39 0.37 0.31 0.36 0.36 0.37 0.38 0.35 0.36 0.39 0.36 0.33 0.35 0.35 0.38 0.41 0.44
1.25 1.24 1.19 1.15 1.15 1.09 1.06 1.04 1.00 0.96 0.90 0.81 0.76 0.77 0.75 0.69 0.51 0.61 0.74 0.72 0.72 0.73 0.64 0.56 0.50 0.44 0.40 0.38 0.42 0.34 0.38 0.37 0.37 0.37 0.36 0.35 0.36 0.34 0.34 0.33 0.37 0.37 0.39 0.41 0.39
1.19 1.18 1.13 1.09 1.10 1.08 1.04 0.98 0.99 0.94 0.85 0.77 0.71 0.72 0.60 0.45 0.53 0.66 0.74 0.82 0.80 0.71 0.58 0.52 0.48 0.44 0.39 0.38 0.38 0.37 0.37 0.38 0.38 0.38 0.38 0.38 0.35 0.35 0.36 0.38 0.38 0.39 0.39 0.39 0.40
1.07 1.09 1.13 1.13 1.08 1.05 1.03 0.98 0.97 0.93 0.84 0.74 0.70 0.73 0.55 0.40 0.52 0.57 0.58 0.63 0.61 0.59 0.54 0.54 0.48 0.46 0.41 0.43 0.41 0.43 0.43 0.42 0.43 0.41 0.41 0.37 0.36 0.37 0.37 0.39 0.39 0.38 0.37 0.38 0.38
0.85 0.94 1.05 1.11 1.08 1.07 1.02 1.01 0.96 0.94 0.85 0.75 0.72 0.71 0.55 0.53 0.58 0.62 0.62 0.61 0.59 0.52 0.47 0.49 0.51 0.50 0.46 0.40 0.43 0.43 0.38 0.40 0.40 0.39 0.38 0.39 0.34 0.34 0.38 0.39 0.36 0.35 0.36 0.37 0.38
0.72 0.80 0.89 1.04 1.02 1.12 1.01 1.09 1.07 1.00 0.87 0.79 0.79 0.71 0.47 0.68 0.69 0.61 0.55 0.49 0.55 0.53 0.49 0.49 0.48 0.45 0.40 0.42 0.39 0.35 0.35 0.29 0.36 0.37 0.38 0.37 0.30 0.38 0.40 0.38 0.36 0.36 0.36 0.36 0.37
0.70 0.80 0.78 0.88 0.97 1.08 1.10 1.08 1.06 0.93 0.88 0.83 0.75 0.66 0.47 0.65 0.49 0.45 0.44 0.35 0.38 0.44 0.46 0.46 0.44 0.35 0.33 0.30 0.29 0.32 0.26 0.27 0.29 0.35 0.35 0.33 0.29 0.35 0.37 0.35 0.34 0.36 0.36 0.36 0.36
0.69 0.76 0.81 0.81 0.88 0.98 1.06 0.98 0.93 0.92 0.90 0.85 0.75 0.56 0.54 0.44 0.53 0.52 0.56 0.45 0.30 0.29 0.32 0.34 0.34 0.29 0.28 0.28 0.21 0.22 0.23 0.25 0.25 0.30 0.30 0.27 0.26 0.28 0.31 0.31 0.32 0.34 0.35 0.35 0.36
0.71 0.79 0.84 0.83 0.83 0.87 0.87 0.84 0.77 0.70 0.77 0.61 0.61 0.54 0.44 0.56 0.60 0.48 0.50 0.46 0.37 0.32 0.24 0.29 0.23 0.21 0.25 0.25 0.26 0.25 0.24 0.22 0.24 0.26 0.26 0.26 0.26 0.28 0.31 0.31 0.31 0.31 0.32 0.33 0.34
0.73 0.82 0.79 0.85 0.89 0.83 0.77 0.60 0.65 0.65 0.52 0.64 0.63 0.57 0.61 0.62 0.44 0.48 0.53 0.42 0.37 0.28 0.31 0.27 0.21 0.27 0.29 0.30 0.27 0.24 0.23 0.21 0.24 0.28 0.27 0.25 0.23 0.26 0.26 0.26 0.27 0.27 0.28 0.35 0.38
0.75 0.80 0.86 0.84 0.90 0.76 0.71 0.62 0.70 0.65 0.49 0.45 0.56 0.52 0.53 0.55 0.43 0.43 0.49 0.44 0.39 0.34 0.31 0.26 0.25 0.27 0.25 0.23 0.22 0.22 0.20 0.21 0.21 0.24 0.26 0.23 0.18 0.18 0.21 0.23 0.28 0.35 0.38 0.40 0.42
0.80 0.81 0.83 0.85 0.68 0.69 0.68 0.76 0.66 0.64 0.34 0.31 0.33 0.43 0.45 0.47 0.40 0.48 0.49 0.40 0.35 0.30 0.29 0.24 0.26 0.26 0.25 0.22 0.23 0.18 0.23 0.22 0.22 0.21 0.16 0.22 0.12 0.17 0.19 0.21 0.26 0.32 0.38 0.43 0.46
0.81 0.81 0.80 0.77 0.67 0.61 0.69 0.61 0.58 0.57 0.23 0.35 0.29 0.40 0.38 0.31 0.33 0.36 0.44 0.40 0.30 0.27 0.25 0.21 0.22 0.20 0.19 0.19 0.24 0.21 0.25 0.24 0.23 0.20 0.18 0.18 0.14 0.15 0.21 0.18 0.24 0.35 0.41 0.45 0.46
0.83 0.78 0.80 0.71 0.72 0.73 0.73 0.79 0.66 0.37 0.23 0.30 0.37 0.32 0.31 0.30 0.32 0.36 0.31 0.37 0.34 0.28 0.29 0.26 0.32 0.30 0.27 0.29 0.27 0.27 0.24 0.23 0.22 0.20 0.14 0.15 0.15 0.13 0.17 0.22 0.29 0.39 0.43 0.43 0.46
0.83 0.81 0.82 0.77 0.67 0.75 0.75 0.58 0.34 0.25 0.31 0.27 0.29 0.31 0.28 0.23 0.30 0.32 0.29 0.29 0.26 0.24 0.24 0.27 0.25 0.30 0.32 0.26 0.29 0.27 0.22 0.15 0.13 0.14 0.13 0.20 0.18 0.16 0.25 0.33 0.39 0.40 0.42 0.47 0.49
0.85 0.84 0.78 0.81 0.78 0.83 0.67 0.47 0.27 0.32 0.31 0.34 0.33 0.35 0.30 0.28 0.28 0.29 0.28 0.27 0.34 0.30 0.26 0.21 0.18 0.26 0.27 0.22 0.20 0.22 0.22 0.16 0.12 0.13 0.16 0.25 0.16 0.18 0.37 0.43 0.45 0.47 0.46 0.47 0.48
0.81 0.76 0.72 0.75 0.82 0.76 0.51 0.31 0.28 0.32 0.31 0.27 0.30 0.28 0.24 0.23 0.23 0.24 0.31 0.30 0.35 0.37 0.29 0.26 0.24 0.31 0.28 0.26 0.24 0.25 0.21 0.26 0.20 0.22 0.16 0.16 0.18 0.29 0.37 0.37 0.40 0.42 0.43 0.43 0.45
0.76 0.67 0.67 0.79 0.76 0.67 0.43 0.34 0.33 0.33 0.30 0.27 0.24 0.28 0.23 0.22 0.20 0.22 0.28 0.37 0.36 0.40 0.38 0.27 0.18 0.27 0.28 0.26 0.24 0.21 0.20 0.15 0.18 0.10 0.09 0.10 0.13 0.15 0.27 0.31 0.36 0.35 0.38 0.41 0.45
0.71 0.54 0.68 0.80 0.73 0.51 0.36 0.37 0.37 0.34 0.32 0.25 0.25 0.26 0.27 0.25 0.22 0.20 0.23 0.30 0.32 0.31 0.32 0.28 0.22 0.21 0.22 0.18 0.15 0.13 0.11 0.13 0.14 0.14 0.08 0.06 0.10 0.31 0.32 0.34 0.34 0.35 0.37 0.39 0.46
0.61 0.45 0.67 0.75 0.44 0.44 0.36 0.38 0.39 0.32 0.35 0.33 0.28 0.30 0.31 0.33 0.27 0.25 0.26 0.29 0.34 0.31 0.23 0.24 0.19 0.14 0.14 0.18 0.18 0.16 0.14 0.14 0.08 0.07 0.12 0.12 0.09 0.32 0.31 0.31 0.32 0.31 0.38 0.41 0.45
0.52 0.50 0.67 0.65 0.35 0.36 0.39 0.38 0.38 0.33 0.33 0.33 0.34 0.34 0.30 0.30 0.26 0.27 0.28 0.34 0.33 0.28 0.22 0.22 0.15 0.10 0.13 0.17 0.19 0.16 0.16 0.16 0.16 0.17 0.11 0.09 0.09 0.31 0.30 0.26 0.28 0.29 0.36 0.43 0.47
0.51 0.37 0.47 0.52 0.50 0.38 0.35 0.34 0.31 0.37 0.32 0.31 0.31 0.32 0.30 0.28 0.28 0.26 0.26 0.27 0.28 0.26 0.26 0.23 0.16 0.10 0.07 0.10 0.14 0.12 0.14 0.16 0.14 0.09 0.09 0.10 0.10 0.13 0.16 0.22 0.23 0.27 0.35 0.46 0.49
0.45 0.40 0.41 0.34 0.39 0.37 0.36 0.31 0.27 0.27 0.30 0.30 0.25 0.24 0.21 0.18 0.19 0.18 0.20 0.20 0.22 0.27 0.24 0.21 0.13 0.14 0.13 0.12 0.14 0.13 0.12 0.12 0.11 0.12 0.10 0.09 0.08 0.10 0.14 0.20 0.23 0.28 0.36 0.46 0.48
0.39 0.37 0.38 0.36 0.40 0.36 0.32 0.27 0.26 0.25 0.24 0.23 0.20 0.20 0.20 0.17 0.16 0.15 0.17 0.17 0.16 0.25 0.22 0.23 0.13 0.14 0.11 0.12 0.11 0.09 0.10 0.10 0.10 0.10 0.11 0.10 0.09 0.14 0.21 0.23 0.26 0.33 0.42 0.45 0.48
0.46 0.45 0.35 0.37 0.35 0.29 0.27 0.25 0.24 0.25 0.26 0.23 0.19 0.18 0.17 0.18 0.20 0.20 0.20 0.19 0.18 0.16 0.16 0.16 0.13 0.10 0.07 0.10 0.10 0.05 0.08 0.12 0.16 0.21 0.21 0.16 0.18 0.24 0.21 0.23 0.30 0.40 0.43 0.46 0.48
Wind_Speed
30 29 28 27 27 26 26 26 26 26 26 26 27 27 27 27 28 26 25 24 23 22 21 20 20 20 20 21 21 21 23 23 22 19 19 18 18 19 20 22 21 21 21 23 22
31 30 30 29 28 28 28 27 27 27 27 27 27 27 27 28 26 26 23 22 20 20 21 21 21 21 21 22 23 24 25 25 23 23 23 22 22 22 23 25 25 26 24 25 23
34 33 32 32 31 30 30 29 29 29 29 29 29 28 28 27 25 22 21 20 20 20 20 20 20 21 22 23 24 24 27 25 25 26 26 25 25 25 26 27 26 27 27 26 25
37 36 36 35 34 33 32 32 32 31 31 30 30 29 29 26 23 21 20 20 20 21 21 21 22 22 23 25 25 27 28 27 26 28 27 28 30 29 29 29 27 27 26 26 27
41 40 39 38 37 36 35 34 33 33 32 32 31 30 28 26 27 28 27 26 25 25 24 24 24 24 25 25 25 28 28 28 29 30 30 30 31 31 30 29 28 28 27 28 28
44 43 41 40 39 39 37 37 36 35 34 33 32 30 28 28 26 25 25 25 26 27 27 26 26 26 25 26 26 25 27 28 27 28 27 28 29 28 28 28 28 28 28 28 28
47 46 45 43 42 41 40 39 39 37 36 35 34 32 32 32 29 28 28 26 25 24 23 24 25 24 23 24 25 26 28 28 29 29 29 28 30 30 31 28 27 27 27 28 28
49 48 47 46 45 43 42 42 39 38 38 38 35 34 35 33 34 34 32 29 27 26 24 24 24 25 25 26 25 24 25 25 22 22 24 24 28 27 24 24 28 29 29 28 29
50 49 48 47 46 45 42 41 41 41 41 38 36 36 39 34 31 31 31 30 31 30 28 26 25 25 24 23 23 23 26 24 25 24 23 24 25 25 26 28 28 29 29 29 29
50 49 48 47 46 45 43 41 42 41 40 38 40 38 37 34 31 30 30 30 30 30 29 28 27 26 25 23 25 22 23 23 24 21 26 30 31 31 30 29 29 28 28 29 29
50 48 46 46 44 43 42 41 40 39 41 40 38 38 38 37 36 33 31 29 30 29 29 28 29 30 29 26 27 26 26 29 27 26 25 27 29 28 28 27 28 27 26 26 25
49 48 47 45 43 42 42 42 42 41 43 45 47 49 45 39 37 37 32 30 29 30 27 28 33 31 28 28 27 26 27 27 26 25 23 27 30 29 27 25 24 23 21 22 25
47 45 43 41 40 41 42 40 39 40 40 44 43 44 43 43 43 39 36 32 31 30 30 31 26 26 27 26 27 28 27 26 27 25 25 26 27 21 16 18 16 17 20 21 22
43 43 40 38 38 38 37 37 36 34 35 39 37 38 37 35 38 41 37 33 31 32 29 31 32 28 24 25 25 28 26 27 26 22 22 19 24 23 19 14 15 17 18 20 22
40 38 38 38 35 33 33 30 28 27 24 21 25 28 26 28 28 30 33 30 30 27 25 26 23 25 29 28 24 24 21 22 22 22 21 22 21 18 17 17 16 16 19 20 23
37 36 35 32 30 29 26 22 21 18 20 20 17 17 19 23 20 18 27 24 23 22 23 22 20 19 19 19 20 18 18 17 18 19 22 24 20 19 17 16 17 18 19 22 23
34 33 33 31 29 26 23 20 17 22 18 16 19 19 17 17 18 17 20 22 21 21 21 19 18 17 17 17 17 17 15 16 16 16 18 15 18 21 19 17 18 18 20 22 25
29 29 28 28 26 25 20 18 17 19 21 19 16 14 15 14 14 13 16 19 18 17 17 18 17 16 15 15 16 16 16 15 16 15 13 15 17 15 14 16 16 18 20 24 27
26 24 26 26 26 27 20 19 19 19 18 16 13 14 14 15 15 13 14 16 16 17 18 15 16 14 11 12 13 13 13 13 15 16 18 18 18 17 17 17 17 20 23 25 27
24 24 25 24 26 25 20 19 18 17 17 18 17 16 15 14 14 14 14 15 15 15 15 15 13 13 13 12 12 13 13 13 13 15 18 17 19 18 17 19 20 21 23 25 27
23 22 25 24 23 22 19 20 17 16 15 15 15 14 14 13 13 13 12 13 13 12 13 13 13 12 14 13 13 14 15 15 16 16 17 18 17 15 16 18 20 21 23 24 25
24 22 26 26 19 20 19 17 15 15 15 15 13 12 14 14 13 14 14 13 13 12 11 11 11 12 13 15 16 14 14 14 15 16 18 20 22 18 20 20 22 24 23 22 21
19 21 27 27 19 18 18 17 17 16 15 15 15 15 13 14 13 13 11 11 12 12 12 12 12 10 10 12 11 12 12 13 14 18 21 21 21 19 19 22 22 22 20 18 17
17 17 21 24 20 20 16 17 14 13 12 10 11 12 10 12 12 11 11 11 12 12 11 11 13 14 14 12 12 14 16 18 19 21 24 28 31 30 29 24 21 20 16 14 15
17 19 20 22 21 19 16 15 13 12 10 9 8 9 10 10 11 11 11 11 11 11 11 12 14 15 17 17 17 21 23 25 27 29 29 31 33 28 26 22 17 15 13 11 12
16 19 18 20 17 18 15 13 13 10 9 9 9 8 9 9 9 11 10 11 12 12 12 14 14 14 17 20 22 26 27 28 30 31 33 35 35 27 19 15 12 10 9 8 8
15 19 16 18 16 16 15 13 12 11 6 7 9 8 7 8 8 9 11 12 13 13 14 14 14 15 17 16 22 25 19 18 20 22 25 26 24 17 14 10 10 7 6 5 6
Wind_Direction
279 281 281 282 286 288 290 292 294 296 296 297 297 296 295 294 293 288 282 278 276 273 268 267 267 263 262 261 260 259 260 262 266 263 269 268 269 268 267 268 267 265 269 272 273
276 277 278 280 282 285 287 289 291 293 295 296 297 296 295 295 291 287 282 276 275 270 267 264 264 262 263 261 260 258 261 261 265 265 268 270 270 273 270 271 269 270 268 269 269
273 275 276 278 279 281 283 286 287 290 292 294 295 295 295 295 290 283 282 275 271 271 270 268 264 264 263 261 259 260 263 265 267 265 268 270 271 269 270 269 269 270 270 269 266
272 273 274 275 276 278 280 282 284 287 289 291 292 293 293 289 287 281 279 277 271 270 270 269 267 265 264 261 261 264 265 266 269 267 267 270 272 269 266 267 269 269 268 266 266
271 272 272 273 274 276 278 280 282 283 285 287 289 289 289 285 279 277 278 273 271 269 267 267 266 265 265 266 265 265 269 268 268 269 270 270 268 268 266 268 268 268 268 266 267
270 270 270 271 272 274 275 277 279 280 282 284 285 285 284 283 281 278 278 275 270 267 267 264 265 264 268 267 266 269 268 270 270 269 270 269 269 264 269 268 267 268 268 267 265
269 268 268 269 270 272 274 276 278 277 279 280 281 280 278 276 278 276 276 273 270 265 266 265 265 264 266 270 269 270 273 272 268 269 270 270 268 265 267 269 267 267 269 268 267
268 267 267 267 267 269 271 274 275 275 278 278 277 277 277 277 276 274 270 268 265 263 265 266 267 267 267 270 272 272 271 272 272 269 272 265 272 269 266 271 274 271 271 269 268
268 266 266 265 264 266 269 271 272 276 275 274 275 277 278 278 273 271 265 264 261 261 262 266 263 266 267 269 271 269 269 268 273 271 272 269 272 270 272 276 274 273 272 271 271
267 266 264 264 262 264 266 269 273 274 272 271 273 276 274 275 272 270 267 262 261 257 260 261 262 262 262 261 265 265 266 269 271 272 274 275 273 271 273 273 273 272 272 272 272
266 263 262 260 260 262 264 269 269 272 268 266 269 270 272 274 271 268 265 261 258 257 254 256 257 256 254 256 261 267 268 272 273 273 274 272 274 273 273 272 271 271 272 275 274
264 262 261 258 259 261 264 266 267 270 271 265 267 267 268 269 269 263 258 256 254 252 252 256 258 256 257 255 258 262 266 270 273 272 269 275 276 275 271 270 268 271 274 274 278
262 259 255 256 257 261 265 264 266 270 271 271 266 268 264 258 259 259 251 253 251 249 249 252 258 253 251 253 256 260 262 266 269 275 273 277 275 269 267 267 265 270 274 278 281
258 255 250 252 259 260 263 263 265 268 274 271 264 266 261 259 259 250 248 248 249 246 249 256 255 251 250 252 253 261 256 260 264 268 270 278 276 269 270 262 270 274 277 282 285
253 246 247 251 256 256 262 258 257 269 268 269 265 266 259 249 260 250 240 242 241 243 244 252 250 245 246 251 249 256 253 253 258 261 268 266 268 272 262 275 271 275 281 287 288
247 243 241 249 251 252 244 243 254 255 258 274 256 250 259 253 257 246 228 238 240 238 245 246 248 246 244 245 243 253 253 256 260 260 263 259 256 273 263 271 277 279 287 292 293
237 237 238 242 243 234 232 241 253 253 270 254 256 256 251 243 248 240 223 226 232 234 238 245 245 246 246 242 245 249 248 257 258 255 266 262 255 262 277 276 279 286 292 294 297
228 229 234 235 225 216 227 242 243 253 254 257 255 242 250 246 241 242 225 229 235 236 237 235 239 244 247 245 246 246 246 251 259 258 264 257 263 268 278 280 282 289 292 297 300
220 226 228 222 215 217 235 244 244 248 254 251 247 244 250 243 242 245 241 235 235 240 237 236 240 241 240 247 247 245 249 259 262 266 268 262 268 269 277 286 290 295 300 302 303
222 223 222 215 220 222 234 237 246 252 256 249 244 251 242 242 241 239 238 240 232 233 239 233 236 244 247 244 260 254 254 257 261 265 265 268 268 268 280 288 295 300 302 302 304
216 218 214 213 211 222 232 234 246 253 246 250 243 241 237 242 245 242 237 239 236 234 234 237 246 246 247 250 252 262 261 260 262 261 269 276 271 276 281 288 295 301 304 305 306
213 213 208 202 215 223 227 234 251 246 255 247 240 242 243 249 249 245 239 236 232 233 235 241 243 244 253 269 260 256 256 259 260 265 266 271 273 276 278 283 288 292 298 303 306
216 207 208 210 221 224 228 239 242 248 251 252 247 249 245 231 235 230 228 237 230 235 233 234 246 247 257 259 259 255 255 263 268 269 265 267 275 275 281 285 287 289 290 296 306
206 206 208 213 230 222 220 230 233 239 241 241 229 231 225 223 232 226 227 235 238 240 240 247 247 254 257 263 264 263 264 266 270 271 273 266 278 273 282 282 283 279 277 283 304
214 213 209 214 223 216 220 226 221 224 223 219 220 223 220 222 231 232 233 234 242 242 250 253 253 256 264 269 268 271 272 271 269 270 270 276 272 275 278 276 275 264 264 281 299
209 201 203 200 205 206 218 210 195 197 210 213 206 213 219 224 232 230 228 239 246 250 254 261 264 266 270 270 274 277 277 274 273 273 273 272 272 269 264 262 258 243 248 273 310
200 192 196 192 195 193 197 190 189 189 204 207 194 205 211 224 235 242 249 251 255 254 257 261 262 269 274 277 286 283 279 272 276 276 276 269 265 250 245 233 214 218 241 282 319